Regional Weather Roundup
Issued by NWS New Orleans/Baton Rouge, LA

Current Version | Previous Version | Text Only | Print | Product List | Glossary On
Versions: 1 2 3 4 5 6 7 8 9 10 11 12 13 14 15 16 17 18 19 20 21 22 23 24 25 26 27 28 29 30 31 32 33 34 35 36 37 38 39 40 41 42 43 44 45 46 47 48 49 50
000 ASUS44 KLIX 050414 RWRLIX NEW ORLEANS REGIONAL WEATHER ROUNDUP NATIONAL WEATHER SERVICE NEW ORLEANS LA 1000 PM CST THU MAR 04 2021 NOTE: "FAIR" INDICATES FEW OR NO CLOUDS BELOW 12,000 FEET WITH NO SIGNIFICANT WEATHER AND/OR OBSTRUCTIONS TO VISIBILITY. SKY/WX - SKY CONDITION AND SIGNIFICANT WEATHER. TMP - AIR TEMPERATURE. DP - DEWPOINT TEMPERATURE. RH - RELATIVE HUMIDITY. PRES - PRESSURE. HI - HEAT INDEX. WCI - WIND CHILL INDEX. * THESE STATIONS ARE NOT NWS OR FAA STATIONS AND ARE NOT UNDER NWS QUALITY CONTROL. LAZ038-040-048-061>063-065>067-069-050500- SOUTHEAST LOUISIANA CITY SKY/WX TMP DP RH WIND PRES REMARKS N.O. INTL ARPT MOCLDY 56 47 71 SW6 30.09S N.O. DWNTWN HE FAIR 61 48 62 S3 30.10S N.O. LAKEFRONT PTCLDY 58 47 66 SW6 30.10R RESERVE* FAIR 55 44 66 SW5 30.10R SLIDELL CLEAR 47 43 86 CALM 30.08S BATON ROUGE CLEAR 54 39 57 S5 30.08R BOOTHVILLE* PTCLDY 50 47 91 SW3 30.10S BELLE CHASSE* MOCLDY 50 49 96 CALM 30.09S BOGALUSA* FAIR 46 43 88 CALM 30.09S GALLIANO* CLEAR 46 45 93 CALM 30.10S NEW ROADS* FAIR 51 47 85 CALM 30.08R GONZALES* FAIR 57 46 66 SW3 30.09S HAMMOND* CLEAR 48 43 81 CALM 30.09R HOUMA* CLEAR 52 48 87 CALM 30.10S $$ MSZ070-077-080>082-050500- SOUTHERN MISSISSIPPI CITY SKY/WX TMP DP RH WIND PRES REMARKS MCCOMB CLEAR 48 40 73 CALM 30.08S PICAYUNE* CLEAR 43 34 70 CALM N/A GULFPORT CLEAR 47 43 86 NW3 30.08R BILOXI CLEAR 52 49 91 CALM 30.07R PASCAGOULA CLEAR 46 45 96 CALM 30.08S $$ COASTAL OBSERVATIONS LAKE AND NEARSHORE STATIONS STATION/POSITION TIME SKY/WX TEMP WIND PRES WAVE AIR SEA DIR/SP/G HT/PER (UTC) (F) (DEG/KT/KT) (MB) (FT/S) WAVELAND YACHT 0324 61 60 250/ 2/ 3 N/A GRAND ISLE 0330 63 N/A SOUTHWEST PASS 0324 55 46 130/ 1/ 2 N/A NEW CANAL 0324 59 58 200/ 6/ 9 1018.1 SHELL BEACH 0324 57 65 180/ 5/ 6 1018.9 OFFSHORE STATIONS STATION/POSITION TIME SKY/WX TEMP WIND PRES WAVE AIR SEA DIR/SP/G HT/PER (UTC) (F) (DEG/KT/KT) (MB) (FT/S) LA OFFSHORE OIL 0328 59 150/ 5/ 5 1020.1 1 $$

USA.gov is the U.S. government's official web portal to all federal, state and local government web resources and services.